Regional Weather Roundup
Issued by NWS

Home | Current Version | Previous Version | Text Only | Print | Product List | Glossary Off
Versions: 1 2 3 4 5 6 7 8 9 10 11 12 13 14 15 16 17 18 19 20 21 22 23 24 25 26 27 28 29 30 31 32 33 34 35 36 37 38 39 40 41 42 43 44 45 46 47 48 49 50

992
ASUS43 KBIS 231702
RWRND

NORTH DAKOTA REGIONAL WEATHER ROUNDUP
NATIONAL WEATHER SERVICE BISMARCK ND
1100 AM CST MON JAN 23 2017

NOTE: "FAIR" INDICATES FEW OR NO CLOUDS BELOW 12,000 FEET WITH NO
SIGNIFICANT WEATHER AND/OR OBSTRUCTIONS TO VISIBILITY.


NDZ001>003-009>011-017-231800-
NORTHWEST NORTH DAKOTA

CITY           SKY/WX    TMP DP  RH WIND       PRES   REMARKS
WILLISTON      CLOUDY    24  21  88 NE8       29.80S WCI  15
MINOT          CLOUDY    27  21  78 W14       29.77R WCI  16
MINOT AFB      CLOUDY    24  19  80 W16       29.77R WCI  11
$$

NDZ018>021-031>035-040>046-231800-
SOUTHWEST NORTH DAKOTA

CITY           SKY/WX    TMP DP  RH WIND       PRES   REMARKS
BISMARCK       CLOUDY    30  24  78 SW3       29.80S
DICKINSON      CLOUDY    23  20  88 SE6       29.72S WCI  16
GARRISON         N/A     30  24  78 W5        29.76S
HETTINGER ARPT FOG       22  21  96 E9        29.74R VSB 1/4 WCI  12
$$

NDZ004>008-012>016-024-026-027-054-231800-
NORTHEAST NORTH DAKOTA

CITY           SKY/WX    TMP DP  RH WIND       PRES   REMARKS
GRAND FORKS    CLOUDY    32  24  72 W12       29.80S
GRND FRKS AFB  CLOUDY    31  23  73 W8        29.79F
DEVILS LAKE    CLOUDY    27  22  81 W20       29.78S WCI  13
$$

NDZ022-023-025-028>030-036>039-047>053-231800-
SOUTHEAST NORTH DAKOTA

CITY           SKY/WX    TMP DP  RH WIND       PRES   REMARKS
FARGO          CLOUDY    35  29  78 W8        29.82S
JAMESTOWN      CLOUDY    29  22  75 W7        29.79S
$$





USA.gov is the U.S. government's official web portal to all federal, state and local government web resources and services.